[[{"header":{"parameterUnit":"m.s-1","parameterCategory":1,"la1":30.2991,"la2":30.254,"lo1":-89.0895,"lo2":-89.0444,"dy":0.0017,"dx":0.0017,"nx":28,"ny":28,"refTime":"2025-04-02T03:00:00:Z","depth":0,"parameterNumber":2,"parameterNumberName":"U-component_of_WINDS"},"data":[0,0,0,0,0,0,0,0,0,0,0,0,0,0,0,0,0,0,0,0,0,0,0,0,0,0,0,0,0,0,0,0,0,0,0,0,0,0,0,0,0,0,0,0,0,0,0,0,0,0,0,0,0,0,0,0,0,0,-3.8886,-3.8887,0,-3.8984,-3.8985,-3.8986,-3.9011,-3.901,-3.901,-3.9009,-3.9106,-3.9109,-3.9112,0,0,0,0,0,0,0,0,0,0,0,0,0,-3.8716,-3.8719,-3.8885,-3.8887,-3.8888,-3.8983,-3.8985,-3.8986,-3.9011,-3.901,-3.901,-3.9009,-3.9105,-3.9109,-3.9113,0,0,0,0,0,0,0,0,0,0,0,0,0,-3.8799,-3.872,-3.8885,-3.8912,-3.8915,-3.8983,-3.8985,-3.8987,-3.9011,-3.901,-3.9009,-3.9009,-3.9104,-3.9109,-3.9113,-3.9161,0,0,-3.9128,-3.913,0,0,0,0,0,0,0,0,-3.8794,-3.8805,-3.8907,-3.891,-3.8914,-3.8984,-3.8961,-3.9045,-3.9011,-3.8975,-3.9009,-3.9008,-3.9066,-3.9074,-3.9094,-3.9165,-3.9169,-3.9128,-3.9131,-3.9133,-3.9134,0,0,0,0,0,0,0,-3.8789,-3.8801,-3.8924,-3.8908,-3.8913,-3.8918,-3.8929,-3.8977,-3.9024,-3.8978,-3.898,-3.8991,-3.9068,-3.909,-3.9097,-3.9171,-3.9128,-3.9132,-3.9135,-3.9137,-3.9283,-3.9284,0,0,0,0,0,0,-3.8779,-3.8796,-3.8921,-3.8927,-3.8851,-3.8922,-3.8934,-3.8963,-3.9024,-3.9032,-3.8992,-3.8992,-3.9082,-3.9091,-3.91,-3.9158,-3.9133,-3.9137,-3.914,-3.9282,-3.9284,-3.9285,0,0,0,0,0,0,-3.8775,-3.879,-3.8917,-3.8862,-3.8879,-3.8926,-3.8958,-3.8965,-3.8987,-3.9035,-3.9043,-3.9006,-3.9082,-3.9094,-3.9145,-3.9162,-3.914,-3.9144,-3.9281,-3.9283,-3.9284,-3.9276,0,0,0,0,0,0,-3.877,-3.8788,-3.8808,-3.8863,-3.8882,-3.8962,-3.8959,-3.8968,-3.8995,-3.8996,-3.905,-3.9057,-3.9082,-3.9138,-3.915,-3.9168,-3.9148,-3.928,-3.9282,-3.9284,-3.9275,-3.9277,-3.9279,0,0,0,0,0,-3.8764,-3.8801,-3.8808,-3.8823,-3.8907,-3.8963,-3.8973,-3.9002,-3.8996,-3.9016,-3.9046,-3.9056,-3.9159,-3.9143,-3.9157,-3.9177,-3.9279,-3.9281,-3.9284,-3.9274,-3.9276,-3.9278,0,0,0,0,0,0,-3.8745,-3.8809,-3.8818,-3.8874,-3.8913,-3.8967,-3.8992,-3.9004,-3.9044,-3.9043,-3.9076,-3.9088,-3.9137,-3.9162,-3.9144,-3.9225,-3.9219,-3.9224,-3.9206,-3.9209,-3.9211,-3.9203,-3.9151,0,0,0,0,0,-3.8748,-3.8789,-3.8841,-3.8886,-3.8905,-3.8945,-3.897,-3.8989,-3.903,-3.9046,-3.9081,-3.9119,-3.916,-3.9186,-3.9227,-3.9279,-3.929,-3.9299,-3.9301,-3.9302,-3.9306,-3.9334,-3.9338,-3.9293,-3.9293,-3.9293,0,0,-3.8754,-3.8793,-3.8817,-3.8883,-3.8915,-3.8955,-3.8959,-3.9001,-3.9031,-3.9052,-3.9103,-3.913,-3.9175,-3.9226,-3.9251,-3.9249,-3.9321,-3.9305,-3.9306,-3.9309,-3.9337,-3.9341,-3.9345,-3.9294,-3.9294,-3.9294,0,0,-3.8784,-3.8819,-3.8859,-3.8891,-3.894,-3.8967,-3.8976,-3.9029,-3.9047,-3.9099,-3.9115,-3.9151,-3.9221,-3.9252,-3.9277,-3.9318,-3.9328,-3.9331,-3.934,-3.9367,-3.9371,-3.9374,-3.9387,-3.9392,-3.9334,-3.9334,-3.9334,0,-3.8784,-3.8846,-3.8877,-3.8919,-3.8947,-3.8969,-3.9009,-3.9039,-3.9098,-3.9116,-3.9114,-3.9202,-3.9234,-3.9292,-3.9302,-3.9322,-3.9333,-3.9324,-3.9368,-3.9371,-3.9375,-3.9388,-3.9393,-3.9334,-3.9334,-3.9334,-3.9334,0,-3.8843,-3.8886,-3.8912,-3.897,-3.9001,-3.9042,-3.9077,-3.9105,-3.9121,-3.9147,-3.9198,-3.9237,-3.9286,-3.9301,-3.9317,-3.9362,-3.9359,-3.9362,-3.9356,-3.9379,-3.9391,-3.9397,-3.9334,-3.9334,-3.9334,-3.9334,0,0,-3.8864,-3.8938,-3.8947,-3.8973,-3.9029,-3.9062,-3.9103,-3.9151,-3.9173,-3.9213,-3.9247,-3.9306,-3.9309,-3.9337,-3.9356,-3.938,-3.9408,-3.938,-3.9382,-3.9383,-3.9458,-3.9455,-3.946,-3.9416,-3.9417,-3.9418,-3.9454,0,-3.89,-3.8975,-3.9004,-3.9065,-3.9103,-3.9125,-3.916,-3.9198,-3.9223,-3.9259,-3.9286,-3.9327,-3.9329,-3.9346,-3.937,-3.94,-3.9424,-3.9398,-3.9446,-3.9447,-3.9433,-3.9467,-3.9464,-3.9496,-3.9459,-3.946,-3.9461,0,-3.8952,-3.8993,-3.9058,-3.9108,-3.9125,-3.9157,-3.9202,-3.9237,-3.9279,-3.9296,-3.9327,-3.9345,-3.9387,-3.938,-3.9437,-3.9419,-3.944,-3.9458,-3.946,-3.9464,-3.9455,-3.9471,-3.9507,-3.9512,-3.9469,-3.9469,-3.9468,0,-3.8959,-3.9031,-3.9078,-3.91,-3.916,-3.9181,-3.9207,-3.9248,-3.9275,-3.9315,-3.9332,-3.9376,-3.9399,-3.9432,-3.946,-3.9453,-3.9515,-3.951,-3.9528,-3.9528,-3.954,-3.9538,-3.9578,-3.9556,-3.9556,-3.9556,-3.9555,0,-3.8995,-3.9033,-3.9082,-3.9111,-3.9154,-3.9186,-3.9228,-3.9255,-3.9291,-3.9325,-3.9346,-3.9377,-3.9413,-3.9449,-3.9471,-3.9514,-3.9525,-3.9539,-3.9544,-3.9536,-3.9534,-3.955,-3.9548,-3.9557,-3.9557,-3.9556,-3.9556,0,-3.901,-3.9044,-3.9097,-3.9149,-3.9163,-3.9192,-3.9237,-3.9265,-3.9292,-3.9334,-3.9346,-3.9387,-3.9429,-3.9461,-3.9516,-3.9531,-3.9577,-3.9583,-3.9563,-3.9565,-3.9581,-3.9579,-3.9632,-3.964,-3.9613,-3.9613,-3.9613,0,-3.903,-3.906,-3.9116,-3.914,-3.9166,-3.9205,-3.9233,-3.9265,-3.9293,-3.9342,-3.9364,-3.9409,-3.9446,-3.9512,-3.9546,-3.9588,-3.9594,-3.961,-3.9601,-3.9591,-3.9593,-3.959,-3.9593,-3.9611,-3.9611,-3.9611,-3.9611,0,-3.9062,-3.9077,-3.9116,-3.9161,-3.9193,-3.923,-3.9267,-3.9286,-3.9325,-3.9354,-3.9398,-3.9427,-3.9483,-3.9526,-3.9572,-3.9597,-3.961,-3.9614,-3.962,-3.9612,-3.9598,-3.9604,-3.9565,-3.9612,-3.9612,-3.9612,-3.9612,-3.9612,-3.9079,-3.9106,-3.9149,-3.9192,-3.9223,-3.9257,-3.9286,-3.9316,-3.9354,-3.9403,-3.942,-3.9465,-3.9505,-3.9567,-3.9593,-3.9628,-3.9628,-3.9637,-3.9639,-3.9641,-3.9639,-3.9594,-3.9636,-3.9636,-3.9636,-3.9636,-3.9636,0,-3.911,-3.9139,-3.9178,-3.923,-3.9263,-3.9274,-3.9315,-3.9341,-3.9381,-3.9418,-3.9454,-3.9504,-3.9546,-3.9583,-3.9626,-3.9647,-3.9654,-3.9657,-3.9655,-3.966,-3.9637,-3.9627,-3.9651,-3.9651,-3.9651,-3.9651,-3.9651,-3.9651,-3.9131,-3.9177,-3.9197,-3.9258,-3.9287,-3.9332,-3.9354,-3.9385,-3.9415,-3.947,-3.9505,-3.9529,-3.9566,-3.9612,-3.965,-3.966,-3.9674,-3.9676,-3.9687,-3.9664,-3.9662,-3.966,-3.9651,-3.9679,-3.9679,-3.9707,-3.9707,-3.9707]},{"header":{"parameterUnit":"m.s-1","parameterCategory":1,"la1":30.2991,"la2":30.254,"lo1":-89.0895,"lo2":-89.0444,"dy":0.0017,"dx":0.0017,"nx":28,"ny":28,"refTime":"2025-04-02T03:00:00:Z","depth":0,"parameterNumber":3,"parameterNumberName":"V-component_of_WINDS"},"data":[0,0,0,0,0,0,0,0,0,0,0,0,0,0,0,0,0,0,0,0,0,0,0,0,0,0,0,0,0,0,0,0,0,0,0,0,0,0,0,0,0,0,0,0,0,0,0,0,0,0,0,0,0,0,0,0,0,0,5.3404,5.3405,0,5.354,5.3542,5.3543,5.3562,5.356,5.3559,5.3558,5.3696,5.37,5.3705,0,0,0,0,0,0,0,0,0,0,0,0,0,5.3159,5.3163,5.3403,5.3405,5.3407,5.354,5.3542,5.3544,5.3562,5.356,5.3559,5.3557,5.3694,5.37,5.3706,0,0,0,0,0,0,0,0,0,0,0,0,0,5.3277,5.3164,5.3403,5.3432,5.3436,5.3539,5.3542,5.3544,5.3562,5.356,5.3558,5.3557,5.3692,5.3699,5.3706,5.379,0,0,5.3729,5.3732,0,0,0,0,0,0,0,0,5.327,5.3286,5.3426,5.343,5.3435,5.3532,5.3506,5.3626,5.3563,5.3514,5.3558,5.3556,5.3643,5.3654,5.3684,5.3796,5.3802,5.3729,5.3734,5.3737,5.3739,0,0,0,0,0,0,0,5.3262,5.328,5.3457,5.3428,5.3434,5.3438,5.3453,5.3529,5.3587,5.3518,5.352,5.3536,5.3645,5.3676,5.3687,5.3804,5.3729,5.3736,5.374,5.3743,5.3995,5.3997,0,0,0,0,0,0,5.3249,5.3273,5.3453,5.3462,5.3346,5.3444,5.3461,5.3503,5.3587,5.3598,5.3537,5.3536,5.3665,5.3678,5.3692,5.3797,5.3737,5.3744,5.3748,5.3992,5.3995,5.3998,0,0,0,0,0,0,5.3243,5.3264,5.3448,5.3368,5.3392,5.345,5.3498,5.3506,5.3538,5.3601,5.3612,5.3559,5.3664,5.3682,5.3766,5.3802,5.3747,5.3753,5.399,5.3993,5.3996,5.4007,0,0,0,0,0,0,5.3236,5.3262,5.3295,5.3369,5.3396,5.352,5.35,5.351,5.3551,5.3551,5.3625,5.3635,5.3664,5.3755,5.3773,5.3811,5.3759,5.3987,5.3991,5.3995,5.4004,5.4011,5.4016,0,0,0,0,0,5.3227,5.3291,5.3296,5.3318,5.3437,5.3522,5.3537,5.357,5.3554,5.3587,5.3628,5.3632,5.3795,5.3764,5.3784,5.3825,5.3985,5.399,5.3995,5.4001,5.4009,5.4016,0,0,0,0,0,0,5.3219,5.3301,5.3308,5.3397,5.3453,5.3525,5.3568,5.3577,5.3637,5.3635,5.3672,5.3688,5.3772,5.3806,5.377,5.3911,5.3888,5.3898,5.3886,5.3894,5.39,5.3891,5.3765,0,0,0,0,0,5.3228,5.329,5.3358,5.3431,5.3458,5.3508,5.3546,5.3567,5.3625,5.3648,5.3695,5.3751,5.3815,5.3856,5.3918,5.4008,5.4026,5.4047,5.4053,5.4058,5.4066,5.4119,5.413,5.4015,5.4015,5.4015,0,0,5.3246,5.3299,5.3335,5.343,5.3475,5.3539,5.3527,5.3595,5.3643,5.3658,5.3742,5.3778,5.3843,5.3931,5.3973,5.3963,5.4102,5.4064,5.4068,5.4074,5.4125,5.4136,5.4146,5.4018,5.4018,5.4017,0,0,5.3313,5.3358,5.3425,5.3471,5.354,5.3573,5.3589,5.366,5.3686,5.377,5.3784,5.3841,5.3949,5.3996,5.4034,5.412,5.4128,5.4139,5.4172,5.4223,5.4233,5.4241,5.4274,5.4285,5.4147,5.4147,5.4147,0,5.3327,5.3424,5.3458,5.3526,5.3568,5.3586,5.3654,5.3697,5.3782,5.3811,5.3799,5.3938,5.3982,5.4083,5.4105,5.4134,5.4154,5.4132,5.4229,5.4237,5.4245,5.4277,5.4289,5.4148,5.4148,5.4148,5.4148,0,5.3439,5.3506,5.3552,5.3636,5.3682,5.375,5.3795,5.3838,5.3855,5.3889,5.3976,5.4031,5.4105,5.413,5.4146,5.4235,5.4227,5.4221,5.4199,5.4257,5.4288,5.43,5.415,5.415,5.4149,5.4149,0,0,5.3504,5.3607,5.3624,5.3663,5.3741,5.3794,5.3862,5.3937,5.3974,5.4032,5.4092,5.4185,5.4181,5.4224,5.4246,5.429,5.4358,5.428,5.4282,5.4294,5.4461,5.4466,5.448,5.4363,5.4365,5.4367,5.4456,0,5.3582,5.3706,5.374,5.3845,5.3909,5.3927,5.3988,5.4042,5.4076,5.4135,5.4173,5.4239,5.4227,5.4254,5.4299,5.434,5.4392,5.4334,5.442,5.4422,5.4405,5.4495,5.4501,5.4582,5.4468,5.447,5.4472,0,5.3689,5.3752,5.3864,5.3936,5.3964,5.4018,5.409,5.4145,5.4208,5.423,5.4279,5.4297,5.437,5.4343,5.4445,5.4405,5.4442,5.4468,5.4472,5.4483,5.4452,5.4511,5.4609,5.4622,5.449,5.4489,5.4488,0,5.3728,5.384,5.3923,5.3956,5.4041,5.4079,5.4116,5.4177,5.422,5.4283,5.4311,5.4381,5.4419,5.4473,5.4509,5.4486,5.4609,5.4585,5.4631,5.463,5.4657,5.4655,5.4765,5.4677,5.4677,5.4677,5.4677,0,5.3813,5.3881,5.3942,5.3993,5.4071,5.4108,5.4184,5.4222,5.4277,5.4336,5.4355,5.441,5.4454,5.4515,5.4543,5.4625,5.4641,5.4662,5.4669,5.4662,5.4659,5.4688,5.4684,5.468,5.4679,5.4679,5.4678,0,5.3871,5.3914,5.4006,5.408,5.41,5.4154,5.4218,5.4268,5.4303,5.4378,5.4397,5.4452,5.4526,5.4567,5.4658,5.4678,5.4769,5.4772,5.4749,5.4752,5.4797,5.4793,5.493,5.4951,5.4847,5.4848,5.4849,0,5.3923,5.3976,5.4057,5.4098,5.4137,5.4203,5.4248,5.4286,5.4332,5.4409,5.445,5.4525,5.4587,5.4702,5.475,5.4821,5.4827,5.4871,5.4838,5.483,5.4831,5.4828,5.4835,5.4877,5.4878,5.4878,5.4879,0,5.4012,5.4031,5.4095,5.4167,5.4221,5.4279,5.4337,5.437,5.4418,5.4469,5.4545,5.4593,5.4687,5.4761,5.4836,5.4874,5.4886,5.4889,5.4904,5.4897,5.4883,5.4894,5.4766,5.4886,5.4885,5.4885,5.4884,5.4884,5.407,5.412,5.4185,5.4256,5.4304,5.4358,5.441,5.4453,5.4517,5.4597,5.4616,5.4696,5.4759,5.4861,5.4901,5.4965,5.4957,5.4977,5.4983,5.4988,5.4991,5.4871,5.4978,5.4978,5.4978,5.4977,5.4977,0,5.4162,5.4205,5.427,5.4352,5.4409,5.4414,5.4479,5.4526,5.4597,5.4655,5.4716,5.4804,5.4876,5.493,5.5005,5.5045,5.5052,5.5064,5.5062,5.5071,5.4993,5.4974,5.5057,5.5057,5.5057,5.5057,5.5057,5.5057,5.4217,5.4302,5.4329,5.4438,5.4481,5.4561,5.4598,5.4648,5.4695,5.4793,5.4853,5.4888,5.4946,5.5024,5.5091,5.5105,5.5133,5.5144,5.5159,5.5085,5.5076,5.5068,5.5051,5.5149,5.5149,5.5233,5.5234,5.5234]}]]